SCP
0 0 0 0 0 0 0 0 0 0 0 0 0 0 0 0 0 0 0 0 0 0 0 0 0 0 0 0 0 0 0 0 0 0 0 0 0 0 0 0 0 0 0 0 0
0 0 0 0 0 0 0 0 0 0 0 0 0 0 0 0 0 0 0 0 0 0 0 0 0 0 0 0 0 0 0 0 0 0 0 0 0 0 0 0 0 0 0 0 0
0 0 0 -0 -0 0 0 0 0 0 0 0 0 0 0 0 0 0 0 0 0 0 0 0 0 0 0 0 0 0 0 0 0 0 0 0 0 0 0 0 0 0 0 0 0
0 0 0 -0 -0 0 0 0 0 0 0 0 0 0 0 0 0 0 0 0 0 0 0 0 0 0 0 0 0 0 0 0 0 0 0 0 0 0 0 0 0 0 0 0 0
0 0 0 0 -0 0 0 0 0 0 0 0 0 0 0 0 0 0 0 0 0 0 0 0 0 0 0 0 0 0 0 0 0 0 0 0 0 0 0 0 0 0 0 0 0
0 0 0 0 0 0 0 0 0 0 0 0 0 0 0 0 0 0 0 0 0 0 0 0 0 0 0 0 0 0 0 0 0 0 0 0 0 0 0 0 0 0 0 0 0
0 0 0 0 0 0 0 0 0 0 0 0 0 0 0 0 0 0 0 0 0 0 0 0 0 0 0 0 0 0 0 0 0 0 0 0 0 0 0 0 0 0 0 0 0
0 0 0 0 0 0 0 0 0 0 0 0 0 0 0 0 0 0 0 0 0 0 0 0 0 0 0 0 0 0 0 0 0 0 0 0 0 0 0 0 0 0 0 0 0
0 0 0 0 0 0 0 0 0 0 0 0 0 0 0 0 0 0 0 0 0 0 0 0 0 0 0 0 0 0 0 0 0 0 0 0 0 0 0 0 0 0 0 0 0
0 0 0 0 0 0 0 0 0 0 0 0 0 0 0 0 0 0 0 0 0 0 0 0 0 0 0 0 0 0 0 0 0 0 0 0 0 0 0 0 0 0 0 0 0
0 0 0 0 0 0 0 0 0 0 0 0 0 0 0 0 0 0 0 0 0 0 0 0 0 0 0 0 0 0 0 0 0 0 0 0 0 0 0 0 0 0 0 0 0
0 0 0 0 0 0 0 0 0 0 0 0 0 0 0 0 0 0 0 0 0 0 0 0 0 0 0 0 0 0 0 0 0 0 0 0 -0 0 0 0 0 0 0 -0 -0
0 0 0 0 0 0 0 0 0 0 0 0 0 0 0 0 0 0 0 0 0 0 0 0 0 0 0 0 0 0 0 0 0 0 0 0 0 0 0 0 0 -0 -0 0 -0
0 0 0 0 0 0 0 0 0 0 0 0 0 0 0 0 0 0 0 0 0 0 0 0 0 0 0 0 0 0 0 0 0 0 0 0 0 0 0 0 0 -0 0 -0 -0
0 0 0 0 0 0 0 0 0 0 0 0 0 0 0 0 0 0 0 0 0 0 0 0 0 0 0 0 0 0 0 0 0 0 0 0 0 0 0 -0 0 0 0 0 0
0 0 0 0 0 0 0 0 0 0 0 0 0 0 0 0 0 0 0 0 0 0 0 0 0 0 0 0 0 0 0 0 0 0 0 0 0 -0 0 -0 0 0 0 0 0
-0 -0 -0 -0 -0 0 0 0 0 0 0 0 0 0 0 0 0 0 0 0 0 0 0 0 0 -0 0 -0 0 0 0 0 0 0 0 -0 -0 -0 -0 0 0 0 0 0 0
0 0 0 0 0 0 0 0 0 0 0 0 0 0 0 0 0 0 0 0 0 0 0 -0 -0 0 0 0 0 0 0 0 -0 -0 0 0 0 0 0 0 -0 0 0 0 0
0 0 0 0 0 0 0 0 0 0 0 0 0 0 0 0 0 -0 0 -0 0 0 0 0 -0 0 0 0 -0 -0 0 0 0 0 0 0 -0 -0 0 0 0 0 0 0 0
0 0 0 0 0 0 0 0 0 0 0 0 0 0 0 0 0 0 0 -0 -0 -0 0 0 -0 -0 0 -0 -0 -0 0 0 0 0 -0 0 -0 -0 0 0 0 0 0 0 0
0 0 0 0 0 0 0 0 0 0 0 0 0 0 0 0 0 0 0 -0 -0 -0 -0 -0 -0 -0 0 -0 0 0 0 0 0 0 -0 -0 -0 0 0 0 0 0 0 -0 0
-0 0 0 0 0 0 0 0 0 0 0 0 0 0 0 0 0 0 -0 -0 0 0 -0 -0 -0 -0 -0 0 0 0 0 0 -0 -0 0 0 0 0 0 0 0 -0 -0 0 0
-0 -0 -0 -0 -0 0 0 0 0 0 0 0 0 0 -0 -0 -0 -0 -0 0 0 0 -0 0 -0 -0 -0 -0 0 0 0 0 0 0 0 0 -0 0 0 0 -0 -0 0 0 0
-0 0 0 0 0 -0 -0 -0 -0 -0 -0 -0 -0 -0 -0 -0 -0 -0 -0 -0 0 0 0 0 -0 -0 -0 -0 -0 0 0 0 0 0 -0 0 0 0 -0 -0 0 0 0 0 0
-0 0 0 0 0 0 0 0 -0 -0 0 0 -0 -0 -0 -0 -0 -0 -0 -0 0 0 0 0 -0 -0 -0 -0 -0 0 0 0 0 0 0 0 -0 0 0 0 0 0 0 0 0
0 0 0 0 0 0 0 0 0 0 0 0 0 0 0 0 0 0 0 0 0 0 0 0 0 0 -0 -0 -0 -0 -0 0 0 0 0 0 -0 0 0 0 0 0 0 0 0
0 0 0 0 0 0 0 0 0 0 0 0 0 0 0 0 0 0 0 0 0 0 0 0 0 0 0 0 0 -0 0 0 0 0 -0 0 0 0 0 0 0 0 0 0 0
Wind_Speed_500mb
35 40 40 40 35 26 37 54 37 39 49 49 49 47 46 39 31 25 17 5 15 21 23 23 22 21 16 9 7 4 3 7 9 13 8 6 8 7 8 12 8 11 10 10 16
36 37 38 35 35 32 48 51 40 52 53 53 52 47 40 36 28 23 15 19 22 23 21 20 21 19 9 7 7 5 3 5 4 5 4 4 6 4 8 14 17 19 17 20 21
39 39 35 25 26 23 48 37 52 53 55 53 50 43 42 35 25 14 16 22 24 22 20 21 23 14 10 9 10 6 3 8 5 3 1 4 9 6 9 18 25 17 13 12 26
40 35 32 31 25 33 35 40 51 55 52 50 47 40 24 11 9 9 18 24 23 21 20 21 18 8 7 7 5 6 5 3 8 1 4 6 12 12 23 20 12 14 24 28 20
34 36 36 41 34 30 39 49 49 46 43 42 39 24 12 27 18 16 20 21 21 18 15 18 13 11 10 11 7 7 10 4 1 5 9 14 21 22 35 37 33 32 35 22 16
34 50 54 49 45 47 53 48 43 39 39 36 25 17 21 26 22 23 23 19 16 14 14 12 12 20 20 8 4 6 8 3 1 4 6 13 15 8 8 9 12 14 18 21 23
64 63 61 60 51 56 50 40 32 35 35 26 28 22 43 26 23 24 20 21 21 20 25 26 21 9 13 12 8 6 6 5 5 6 5 16 20 18 15 16 20 20 20 24 25
74 69 63 59 49 43 36 31 33 37 37 24 17 12 20 28 24 17 22 23 21 20 24 25 24 24 11 17 6 1 4 5 6 11 2 8 19 7 6 10 16 20 25 27 36
64 59 50 46 40 38 37 32 27 28 25 18 20 20 12 19 20 21 19 21 20 19 20 16 10 13 8 3 5 2 5 6 4 4 8 4 25 7 14 28 43 41 42 38 30
51 42 40 37 34 37 38 33 29 29 26 22 17 20 13 10 19 17 16 14 11 14 10 8 10 6 6 3 3 2 5 5 11 8 13 27 42 43 33 37 45 37 29 22 17
35 31 29 37 43 33 30 18 9 16 63 25 24 27 18 20 27 14 10 13 11 13 7 11 11 12 11 12 10 6 4 12 11 7 18 14 38 47 43 33 27 19 14 13 13
30 27 23 12 8 4 1 7 18 27 32 35 34 33 25 14 7 19 12 6 8 8 4 5 11 7 5 5 5 5 8 9 15 6 16 26 49 42 21 10 8 6 8 10 12
25 20 25 30 20 13 32 41 28 20 12 18 27 20 15 20 13 23 14 9 13 10 14 8 9 6 1 3 6 4 6 8 10 24 9 28 17 6 6 8 9 15 14 15 15
26 16 10 12 20 28 25 16 10 8 7 20 15 14 16 5 9 26 14 7 9 8 8 11 4 2 4 4 6 6 2 5 17 18 10 12 11 7 8 11 11 11 13 11 12
23 20 16 16 9 8 8 5 3 3 7 14 8 8 14 11 3 18 23 13 9 7 3 4 6 3 0 3 2 5 4 9 7 7 9 4 6 7 1 14 14 11 5 3 7
19 20 17 9 9 7 4 2 3 5 4 3 6 7 3 13 6 7 9 14 8 6 13 6 2 2 2 2 1 2 6 3 2 3 4 3 3 10 4 4 6 7 4 4 10
18 17 16 13 7 5 3 3 6 6 1 1 5 5 6 7 5 7 6 7 3 4 3 4 5 3 3 4 4 4 4 5 4 2 4 3 6 16 11 6 1 3 3 9 10
11 12 17 15 11 6 3 2 9 2 5 2 1 3 4 4 5 4 3 4 4 3 4 2 2 2 4 4 3 5 3 3 7 6 9 5 11 6 2 4 11 16 14 16 14
8 8 18 20 12 5 4 8 3 5 5 10 4 2 3 2 1 2 3 2 3 2 5 1 1 3 2 2 4 4 3 4 1 1 7 4 12 19 7 9 12 9 12 13 16
7 5 11 21 12 5 5 7 3 1 3 1 0 3 3 3 2 3 1 3 4 3 5 4 5 1 4 5 5 7 10 4 2 7 8 6 10 7 12 13 9 6 10 20 32
8 2 17 20 6 8 6 6 5 5 2 1 5 5 3 2 1 1 1 4 4 7 2 6 3 5 3 13 10 8 6 3 4 5 5 9 8 8 7 3 5 10 19 36 41
5 3 19 16 2 7 5 5 5 5 2 2 3 4 3 6 4 3 4 4 10 11 3 3 3 7 2 4 3 4 5 9 6 6 4 6 15 5 4 1 1 30 38 40 42
5 5 16 9 4 5 5 5 3 4 3 3 3 2 2 3 2 3 4 1 12 11 5 9 4 7 5 5 5 10 12 10 3 2 16 7 6 3 5 4 26 38 46 42 41
5 2 13 16 14 5 5 5 5 3 4 3 4 3 3 1 2 2 4 0 8 6 3 10 4 12 8 5 4 9 14 21 20 10 12 26 33 28 27 30 49 44 40 40 37
12 6 6 5 9 8 2 4 4 5 2 3 3 7 6 5 4 6 5 3 3 5 5 5 9 7 21 27 26 31 34 31 34 35 20 16 27 33 38 40 40 32 39 47 42
8 5 6 4 2 1 3 5 8 5 7 4 5 5 12 8 6 4 6 7 7 8 10 4 5 3 13 19 14 26 33 35 41 44 43 52 58 39 28 13 27 35 45 44 37
17 12 3 2 2 3 2 4 4 3 7 7 10 8 10 16 16 20 21 18 4 6 14 7 5 5 10 6 25 24 15 19 16 15 36 29 20 22 23 27 37 47 46 40 38
Wind_Direction_500mb
140 152 155 163 168 172 178 159 165 149 145 141 137 134 129 131 132 146 133 89 114 124 126 134 130 131 135 98 69 65 169 161 150 173 132 174 217 199 237 257 235 226 238 242 256
127 141 150 157 161 184 154 147 149 143 142 138 134 132 130 127 134 117 104 116 122 127 130 140 139 136 88 65 22 12 225 123 76 101 130 184 247 249 260 234 242 238 242 259 268
123 136 139 148 160 190 125 130 140 142 139 138 136 136 134 135 116 46 97 118 123 123 132 145 143 123 84 60 24 26 68 135 143 130 325 257 262 255 265 255 252 263 218 254 285
122 134 124 126 138 168 126 138 139 139 139 138 137 140 140 126 106 63 107 120 125 123 128 141 146 91 89 104 51 119 106 140 148 177 290 274 303 272 245 253 276 251 253 278 272
126 121 121 119 117 147 127 137 136 138 139 136 135 133 117 90 77 83 106 120 129 133 145 148 140 122 113 109 113 101 148 131 69 313 299 293 272 271 267 269 266 266 272 252 234
121 124 118 109 122 130 131 129 132 134 130 130 133 122 118 85 82 83 93 105 121 138 149 157 151 122 100 81 20 84 121 131 358 326 295 304 281 312 247 242 262 264 248 233 255
111 115 110 124 123 126 126 126 129 131 129 127 117 115 93 76 80 84 102 108 110 109 117 115 119 112 112 111 104 110 182 160 48 343 323 320 264 230 256 266 264 249 246 249 265
99 109 111 113 120 118 120 119 119 122 123 117 116 120 76 73 72 85 93 97 102 110 109 102 99 94 66 118 92 153 231 266 82 349 336 330 279 193 272 287 278 262 260 268 289
96 104 106 111 110 109 112 116 115 112 109 107 99 95 76 77 73 78 91 102 104 105 98 88 78 80 76 141 150 70 288 304 292 50 312 270 290 221 279 290 282 279 278 279 282
85 93 100 102 102 107 108 103 100 103 102 87 80 82 64 53 62 64 80 97 98 103 75 62 52 86 43 336 281 6 325 303 290 5 312 283 270 283 286 279 281 282 273 263 260
75 85 95 114 118 119 126 124 92 70 67 67 72 83 79 77 56 47 77 83 80 64 55 29 66 74 79 50 71 85 330 302 303 349 315 288 286 289 295 279 270 259 241 235 235
83 78 82 122 166 95 217 112 107 123 75 64 71 72 60 67 60 45 61 77 51 73 335 109 86 105 94 67 67 40 323 326 292 302 317 307 294 293 276 235 233 236 229 236 236
65 87 77 74 80 111 117 108 108 105 88 38 44 45 39 56 46 15 43 64 58 58 32 82 98 132 133 75 0 23 336 347 313 317 265 304 269 235 161 230 244 251 254 255 255
46 53 38 86 87 102 91 90 90 76 91 4 3 24 8 42 60 30 33 71 57 92 61 72 108 110 80 56 340 307 51 312 308 332 313 1 296 266 198 225 234 237 242 262 275
24 32 41 54 82 87 89 68 51 37 85 349 1 6 26 62 78 20 33 51 77 98 240 106 143 129 152 52 283 5 325 306 304 294 306 139 280 277 324 236 214 204 191 255 300
357 7 18 32 49 76 78 71 60 47 110 18 316 353 63 34 46 7 49 63 99 78 51 92 115 247 69 126 266 342 251 274 166 299 252 54 320 281 231 262 172 154 168 280 312
353 4 18 30 45 44 46 100 43 70 352 173 63 25 78 37 67 26 39 56 49 96 21 164 167 153 212 216 166 329 344 307 285 268 306 164 264 263 277 249 245 146 2 344 314
359 4 16 15 15 24 76 95 80 61 201 147 162 99 83 8 54 35 127 127 85 15 112 1 209 169 131 345 348 39 326 305 287 307 315 158 236 252 175 296 266 271 294 306 303
348 349 8 6 1 14 116 60 136 167 132 154 135 161 115 114 302 218 49 103 91 19 28 345 217 99 65 70 318 121 246 7 301 216 274 253 267 273 288 254 242 260 306 323 319
342 347 4 357 358 89 87 106 92 118 112 148 62 336 154 110 234 341 14 95 128 38 356 149 267 175 111 156 80 266 137 222 175 318 297 269 283 265 360 10 39 51 355 328 322
353 52 355 2 58 71 74 82 130 173 150 168 145 135 110 136 312 232 101 137 182 146 126 163 249 132 212 203 187 162 201 192 306 274 289 310 284 192 212 326 5 22 338 323 321
13 34 354 357 20 51 68 74 119 135 91 101 99 97 160 162 188 222 231 255 171 166 211 149 268 246 235 102 337 278 241 220 242 181 240 316 272 137 251 261 41 333 332 331 333
62 38 6 33 63 79 109 95 84 149 167 134 118 40 72 142 245 229 230 356 181 183 190 170 221 291 187 165 198 238 199 210 148 343 219 228 254 103 129 147 331 335 335 337 339
42 45 29 55 67 79 131 120 124 86 104 80 100 107 141 183 198 295 252 136 193 209 194 172 251 257 275 15 56 222 207 212 212 215 259 236 273 268 296 332 325 331 334 334 334
35 61 26 14 46 60 48 131 138 177 92 158 138 231 194 204 206 230 226 241 182 196 143 236 259 247 266 275 264 260 258 235 220 227 243 275 284 286 305 316 320 327 328 330 334
54 5 36 74 18 153 352 187 179 174 180 183 222 168 203 234 235 223 194 214 239 169 192 199 262 301 281 274 272 267 262 248 246 249 254 264 278 295 290 313 327 332 326 323 322
35 22 56 8 53 282 70 150 219 209 211 211 190 182 218 248 264 272 257 262 269 198 189 204 244 326 274 279 298 274 255 214 206 221 231 249 263 301 315 326 327 321 313 310 314
Wind_Speed_850mb
35 40 40 40 35 26 37 54 37 39 49 49 49 47 46 39 31 25 17 5 15 21 23 23 22 21 16 9 7 4 3 7 9 13 8 6 8 7 8 12 8 11 10 10 16
36 37 38 35 35 32 48 51 40 52 53 53 52 47 40 36 28 23 15 19 22 23 21 20 21 19 9 7 7 5 3 5 4 5 4 4 6 4 8 14 17 19 17 20 21
39 39 35 25 26 23 48 37 52 53 55 53 50 43 42 35 25 14 16 22 24 22 20 21 23 14 10 9 10 6 3 8 5 3 1 4 9 6 9 18 25 17 13 12 26
40 35 32 31 25 33 35 40 51 55 52 50 47 40 24 11 9 9 18 24 23 21 20 21 18 8 7 7 5 6 5 3 8 1 4 6 12 12 23 20 12 14 24 28 20
34 36 36 41 34 30 39 49 49 46 43 42 39 24 12 27 18 16 20 21 21 18 15 18 13 11 10 11 7 7 10 4 1 5 9 14 21 22 35 37 33 32 35 22 16
34 50 54 49 45 47 53 48 43 39 39 36 25 17 21 26 22 23 23 19 16 14 14 12 12 20 20 8 4 6 8 3 1 4 6 13 15 8 8 9 12 14 18 21 23
64 63 61 60 51 56 50 40 32 35 35 26 28 22 43 26 23 24 20 21 21 20 25 26 21 9 13 12 8 6 6 5 5 6 5 16 20 18 15 16 20 20 20 24 25
74 69 63 59 49 43 36 31 33 37 37 24 17 12 20 28 24 17 22 23 21 20 24 25 24 24 11 17 6 1 4 5 6 11 2 8 19 7 6 10 16 20 25 27 36
64 59 50 46 40 38 37 32 27 28 25 18 20 20 12 19 20 21 19 21 20 19 20 16 10 13 8 3 5 2 5 6 4 4 8 4 25 7 14 28 43 41 42 38 30
51 42 40 37 34 37 38 33 29 29 26 22 17 20 13 10 19 17 16 14 11 14 10 8 10 6 6 3 3 2 5 5 11 8 13 27 42 43 33 37 45 37 29 22 17
35 31 29 37 43 33 30 18 9 16 63 25 24 27 18 20 27 14 10 13 11 13 7 11 11 12 11 12 10 6 4 12 11 7 18 14 38 47 43 33 27 19 14 13 13
30 27 23 12 8 4 1 7 18 27 32 35 34 33 25 14 7 19 12 6 8 8 4 5 11 7 5 5 5 5 8 9 15 6 16 26 49 42 21 10 8 6 8 10 12
25 20 25 30 20 13 32 41 28 20 12 18 27 20 15 20 13 23 14 9 13 10 14 8 9 6 1 3 6 4 6 8 10 24 9 28 17 6 6 8 9 15 14 15 15
26 16 10 12 20 28 25 16 10 8 7 20 15 14 16 5 9 26 14 7 9 8 8 11 4 2 4 4 6 6 2 5 17 18 10 12 11 7 8 11 11 11 13 11 12
23 20 16 16 9 8 8 5 3 3 7 14 8 8 14 11 3 18 23 13 9 7 3 4 6 3 0 3 2 5 4 9 7 7 9 4 6 7 1 14 14 11 5 3 7
19 20 17 9 9 7 4 2 3 5 4 3 6 7 3 13 6 7 9 14 8 6 13 6 2 2 2 2 1 2 6 3 2 3 4 3 3 10 4 4 6 7 4 4 10
18 17 16 13 7 5 3 3 6 6 1 1 5 5 6 7 5 7 6 7 3 4 3 4 5 3 3 4 4 4 4 5 4 2 4 3 6 16 11 6 1 3 3 9 10
11 12 17 15 11 6 3 2 9 2 5 2 1 3 4 4 5 4 3 4 4 3 4 2 2 2 4 4 3 5 3 3 7 6 9 5 11 6 2 4 11 16 14 16 14
8 8 18 20 12 5 4 8 3 5 5 10 4 2 3 2 1 2 3 2 3 2 5 1 1 3 2 2 4 4 3 4 1 1 7 4 12 19 7 9 12 9 12 13 16
7 5 11 21 12 5 5 7 3 1 3 1 0 3 3 3 2 3 1 3 4 3 5 4 5 1 4 5 5 7 10 4 2 7 8 6 10 7 12 13 9 6 10 20 32
8 2 17 20 6 8 6 6 5 5 2 1 5 5 3 2 1 1 1 4 4 7 2 6 3 5 3 13 10 8 6 3 4 5 5 9 8 8 7 3 5 10 19 36 41
5 3 19 16 2 7 5 5 5 5 2 2 3 4 3 6 4 3 4 4 10 11 3 3 3 7 2 4 3 4 5 9 6 6 4 6 15 5 4 1 1 30 38 40 42
5 5 16 9 4 5 5 5 3 4 3 3 3 2 2 3 2 3 4 1 12 11 5 9 4 7 5 5 5 10 12 10 3 2 16 7 6 3 5 4 26 38 46 42 41
5 2 13 16 14 5 5 5 5 3 4 3 4 3 3 1 2 2 4 0 8 6 3 10 4 12 8 5 4 9 14 21 20 10 12 26 33 28 27 30 49 44 40 40 37
12 6 6 5 9 8 2 4 4 5 2 3 3 7 6 5 4 6 5 3 3 5 5 5 9 7 21 27 26 31 34 31 34 35 20 16 27 33 38 40 40 32 39 47 42
8 5 6 4 2 1 3 5 8 5 7 4 5 5 12 8 6 4 6 7 7 8 10 4 5 3 13 19 14 26 33 35 41 44 43 52 58 39 28 13 27 35 45 44 37
17 12 3 2 2 3 2 4 4 3 7 7 10 8 10 16 16 20 21 18 4 6 14 7 5 5 10 6 25 24 15 19 16 15 36 29 20 22 23 27 37 47 46 40 38
Wind_Direction_850mb
140 152 155 163 168 172 178 159 165 149 145 141 137 134 129 131 132 146 133 89 114 124 126 134 130 131 135 98 69 65 169 161 150 173 132 174 217 199 237 257 235 226 238 242 256
127 141 150 157 161 184 154 147 149 143 142 138 134 132 130 127 134 117 104 116 122 127 130 140 139 136 88 65 22 12 225 123 76 101 130 184 247 249 260 234 242 238 242 259 268
123 136 139 148 160 190 125 130 140 142 139 138 136 136 134 135 116 46 97 118 123 123 132 145 143 123 84 60 24 26 68 135 143 130 325 257 262 255 265 255 252 263 218 254 285
122 134 124 126 138 168 126 138 139 139 139 138 137 140 140 126 106 63 107 120 125 123 128 141 146 91 89 104 51 119 106 140 148 177 290 274 303 272 245 253 276 251 253 278 272
126 121 121 119 117 147 127 137 136 138 139 136 135 133 117 90 77 83 106 120 129 133 145 148 140 122 113 109 113 101 148 131 69 313 299 293 272 271 267 269 266 266 272 252 234
121 124 118 109 122 130 131 129 132 134 130 130 133 122 118 85 82 83 93 105 121 138 149 157 151 122 100 81 20 84 121 131 358 326 295 304 281 312 247 242 262 264 248 233 255
111 115 110 124 123 126 126 126 129 131 129 127 117 115 93 76 80 84 102 108 110 109 117 115 119 112 112 111 104 110 182 160 48 343 323 320 264 230 256 266 264 249 246 249 265
99 109 111 113 120 118 120 119 119 122 123 117 116 120 76 73 72 85 93 97 102 110 109 102 99 94 66 118 92 153 231 266 82 349 336 330 279 193 272 287 278 262 260 268 289
96 104 106 111 110 109 112 116 115 112 109 107 99 95 76 77 73 78 91 102 104 105 98 88 78 80 76 141 150 70 288 304 292 50 312 270 290 221 279 290 282 279 278 279 282
85 93 100 102 102 107 108 103 100 103 102 87 80 82 64 53 62 64 80 97 98 103 75 62 52 86 43 336 281 6 325 303 290 5 312 283 270 283 286 279 281 282 273 263 260
75 85 95 114 118 119 126 124 92 70 67 67 72 83 79 77 56 47 77 83 80 64 55 29 66 74 79 50 71 85 330 302 303 349 315 288 286 289 295 279 270 259 241 235 235
83 78 82 122 166 95 217 112 107 123 75 64 71 72 60 67 60 45 61 77 51 73 335 109 86 105 94 67 67 40 323 326 292 302 317 307 294 293 276 235 233 236 229 236 236
65 87 77 74 80 111 117 108 108 105 88 38 44 45 39 56 46 15 43 64 58 58 32 82 98 132 133 75 0 23 336 347 313 317 265 304 269 235 161 230 244 251 254 255 255
46 53 38 86 87 102 91 90 90 76 91 4 3 24 8 42 60 30 33 71 57 92 61 72 108 110 80 56 340 307 51 312 308 332 313 1 296 266 198 225 234 237 242 262 275
24 32 41 54 82 87 89 68 51 37 85 349 1 6 26 62 78 20 33 51 77 98 240 106 143 129 152 52 283 5 325 306 304 294 306 139 280 277 324 236 214 204 191 255 300
357 7 18 32 49 76 78 71 60 47 110 18 316 353 63 34 46 7 49 63 99 78 51 92 115 247 69 126 266 342 251 274 166 299 252 54 320 281 231 262 172 154 168 280 312
353 4 18 30 45 44 46 100 43 70 352 173 63 25 78 37 67 26 39 56 49 96 21 164 167 153 212 216 166 329 344 307 285 268 306 164 264 263 277 249 245 146 2 344 314
359 4 16 15 15 24 76 95 80 61 201 147 162 99 83 8 54 35 127 127 85 15 112 1 209 169 131 345 348 39 326 305 287 307 315 158 236 252 175 296 266 271 294 306 303
348 349 8 6 1 14 116 60 136 167 132 154 135 161 115 114 302 218 49 103 91 19 28 345 217 99 65 70 318 121 246 7 301 216 274 253 267 273 288 254 242 260 306 323 319
342 347 4 357 358 89 87 106 92 118 112 148 62 336 154 110 234 341 14 95 128 38 356 149 267 175 111 156 80 266 137 222 175 318 297 269 283 265 360 10 39 51 355 328 322
353 52 355 2 58 71 74 82 130 173 150 168 145 135 110 136 312 232 101 137 182 146 126 163 249 132 212 203 187 162 201 192 306 274 289 310 284 192 212 326 5 22 338 323 321
13 34 354 357 20 51 68 74 119 135 91 101 99 97 160 162 188 222 231 255 171 166 211 149 268 246 235 102 337 278 241 220 242 181 240 316 272 137 251 261 41 333 332 331 333
62 38 6 33 63 79 109 95 84 149 167 134 118 40 72 142 245 229 230 356 181 183 190 170 221 291 187 165 198 238 199 210 148 343 219 228 254 103 129 147 331 335 335 337 339
42 45 29 55 67 79 131 120 124 86 104 80 100 107 141 183 198 295 252 136 193 209 194 172 251 257 275 15 56 222 207 212 212 215 259 236 273 268 296 332 325 331 334 334 334
35 61 26 14 46 60 48 131 138 177 92 158 138 231 194 204 206 230 226 241 182 196 143 236 259 247 266 275 264 260 258 235 220 227 243 275 284 286 305 316 320 327 328 330 334
54 5 36 74 18 153 352 187 179 174 180 183 222 168 203 234 235 223 194 214 239 169 192 199 262 301 281 274 272 267 262 248 246 249 254 264 278 295 290 313 327 332 326 323 322
35 22 56 8 53 282 70 150 219 209 211 211 190 182 218 248 264 272 257 262 269 198 189 204 244 326 274 279 298 274 255 214 206 221 231 249 263 301 315 326 327 321 313 310 314